Raleigh-Durham Airport, NC

11:39 PM EDT on March 23, 2017 (GMT -0400)
Raleigh-Durham International

Weather History for KRDU - June, 2011

Change the Weather History Date:

Thursday, June 23, 2011

  Actual Average Record
Temperature  
Mean Temperature 83 °F 78 °F  
Max Temperature 92 °F 89 °F 100 °F (1986)
Min Temperature 74 °F 68 °F 50 °F (1992)
Degree Days  
Heating Degree Days 0 0  
Month to date heating degree days 0 0  
Since 1 June heating degree days 0 0  
Since 1 July heating degree days 3316 3243  
Cooling Degree Days 18 13  
Month to date cooling degree days 351 249  
Year to date cooling degree days 639 458  
Since 1 June cooling degree days 351 249  
Growing Degree Days 33 (Base 50)    
Moisture  
Dew Point 65 °F    
Average Humidity 60    
Maximum Humidity 79    
Minimum Humidity 41    
Precipitation  
Precipitation 0.00 in 0.12 in 2.87 in (1887)
Month to date precipitation 0.78 2.70  
Year to date precipitation 14.64 19.73  
Sea Level Pressure  
Sea Level Pressure 29.86 in    
Wind  
Wind Speed 11 mph (WSW)    
Max Wind Speed 26 mph    
Max Gust Speed 36 mph    
Visibility 10 miles    
Events      
T = Trace of Precipitation, MM = Missing Value Source: NWS Daily Summary

Daily Weather History Graph

Daily Weather History Graph

Search for Another Location

Airport or City:

Trip Planner

Search our weather history database for the weather conditions in past years. The results will help you decide how hot, cold, wet, or windy it might be!

Date:

Astronomy

Jun. 23, 2011 Rise Set
Actual Time 5:59 AM EDT 8:35 PM EDT
Civil Twilight 5:29 AM EDT 9:05 PM EDT
Nautical Twilight 4:51 AM EDT 9:42 PM EDT
Astronomical Twilight 4:10 AM EDT 10:24 PM EDT
Moon 12:44 AM EDT (6/23) 1:35 PM EDT (6/23)
Length of Visible Light 15h 36m
Length of Day
14h 35m
Waning Gibbous, 48% of the Moon is Illuminated
Jun 23
Waning Gibbous
Jul 1
New
Jul 8
First Quarter
Jul 15
Full
Jul 23
Last Quarter

Hourly Weather History & Observations

Time (EDT) Temp. Heat Index Dew Point Humidity Pressure Visibility Wind Dir Wind Speed Gust Speed Precip Events Conditions
12:51 AM 77.0 °F - 66.9 °F 71% 29.91 in 10.0 mi SW 10.4 mph - N/A   Mostly Cloudy
1:51 AM 75.9 °F - 68.0 °F 76% 29.89 in 10.0 mi SW 8.1 mph - N/A   Mostly Cloudy
2:51 AM 78.1 °F - 66.0 °F 66% 29.86 in 10.0 mi SW 10.4 mph - N/A   Mostly Cloudy
3:51 AM 77.0 °F - 64.0 °F 64% 29.88 in 10.0 mi WSW 9.2 mph - N/A   Mostly Cloudy
4:51 AM 75.9 °F - 64.0 °F 67% 29.88 in 10.0 mi SW 12.7 mph - N/A   Mostly Cloudy
5:51 AM 75.0 °F - 64.0 °F 69% 29.88 in 10.0 mi SW 10.4 mph - N/A   Mostly Cloudy
6:51 AM 75.9 °F - 64.0 °F 67% 29.88 in 10.0 mi SW 12.7 mph - N/A   Mostly Cloudy
7:51 AM 77.0 °F - 64.9 °F 66% 29.89 in 10.0 mi WSW 8.1 mph - N/A   Mostly Cloudy
8:51 AM 80.1 °F 81.9 °F 64.9 °F 60% 29.89 in 10.0 mi WSW 12.7 mph - N/A   Mostly Cloudy
9:51 AM 82.9 °F 85.0 °F 66.0 °F 56% 29.90 in 10.0 mi WSW 9.2 mph - N/A   Mostly Cloudy
10:51 AM 82.9 °F 85.0 °F 66.0 °F 56% 29.91 in 10.0 mi West 12.7 mph 19.6 mph N/A   Mostly Cloudy
11:51 AM 87.1 °F 90.6 °F 68.0 °F 53% 29.91 in 10.0 mi SW 12.7 mph 19.6 mph N/A   Mostly Cloudy
12:51 PM 91.0 °F 94.3 °F 66.9 °F 45% 29.88 in 10.0 mi WSW 20.7 mph 26.5 mph N/A   Mostly Cloudy
1:51 PM 88.0 °F 89.3 °F 64.0 °F 45% 29.88 in 10.0 mi West 15.0 mph 25.3 mph N/A   Mostly Cloudy
2:51 PM 89.1 °F 91.0 °F 64.9 °F 45% 29.86 in 10.0 mi West 15.0 mph 20.7 mph N/A   Mostly Cloudy
3:51 PM 91.0 °F 92.6 °F 64.0 °F 41% 29.84 in 10.0 mi West 11.5 mph 21.9 mph N/A   Mostly Cloudy
4:51 PM 91.0 °F 93.0 °F 64.9 °F 42% 29.81 in 10.0 mi West 13.8 mph 21.9 mph N/A   Mostly Cloudy
5:51 PM 88.0 °F 89.3 °F 64.0 °F 45% 29.82 in 10.0 mi West 10.4 mph - N/A   Mostly Cloudy
6:51 PM 86.0 °F 87.3 °F 64.0 °F 48% 29.81 in 10.0 mi WSW 13.8 mph 20.7 mph N/A   Mostly Cloudy
7:51 PM 84.0 °F 85.4 °F 64.0 °F 51% 29.80 in 10.0 mi West 11.5 mph - N/A   Mostly Cloudy
8:51 PM 81.0 °F 82.7 °F 64.9 °F 58% 29.82 in 10.0 mi WSW 8.1 mph - N/A   Mostly Cloudy
9:51 PM 77.0 °F - 64.9 °F 66% 29.84 in 10.0 mi WSW 5.8 mph - N/A   Mostly Cloudy
10:51 PM 79.0 °F - 64.9 °F 62% 29.85 in 10.0 mi SW 8.1 mph - N/A   Mostly Cloudy
11:51 PM 75.0 °F - 64.9 °F 71% 29.85 in 10.0 mi WSW 6.9 mph - N/A   Mostly Cloudy